Regional Weather Roundup
Issued by NWS

Home | Current Version | Previous Version | Text Only | Print | Product List | Glossary On
Versions: 1 2 3 4 5 6 7 8 9 10 11 12 13 14 15 16 17 18 19 20 21 22 23 24 25 26 27
000
ASUS42 KKEY 201410
RWRKEY

FLORIDA REGIONAL WEATHER ROUNDUP FOR THE FLORIDA KEYS
NATIONAL WEATHER SERVICE KEY WEST FLORIDA
900 AM EST MON FEB 20 2017

...SOUTH FLORIDA AND THE KEYS...

CITY           SKY/WX    TMP DP  RH WIND       PRES   REMARKS
FORT MYERS     SUNNY     68  64  87 E6        30.13R
SW REGIONAL AP SUNNY     67  62  84 NE6       30.13R
NAPLES         SUNNY     71  65  81 E7        30.12R
MIAMI          MOSUNNY   72  64  76 NE5       30.12R
WEST KENDALL   SUNNY     76  66  71 CALM      30.12R
HOMESTEAD      SUNNY     76  67  73 E8        30.11R
MARATHON       SUNNY     79  68  69 E10       30.10R
BOCA CHICA NAS SUNNY     72  71  97 E12       30.10R
KEY WEST INTL  MOSUNNY   77  71  82 E6        30.11R

...INTERNATIONAL WEATHER...

CITY           SKY/WX    TMP DP  RH WIND       PRES   REMARKS
NASSAU BAHAMAS NOT AVBL
CANCUN MEXICO  PTSUNNY   77  70  78 SE14      30.02R
COZUMEL MEXICO MOSUNNY   81  70  69 SE16      30.01R

ADJACENT COASTAL WATERS...

STATION/POSITION TIME  SKY/WX   TEMP    WIND        PRES    WAVE
                                AIR SEA DIR/SP/G            HT/PER
                 (UTC)          (F)     (DEG/KT/KT) (MB)    (FT/S)
PULASKI SHOAL LI 1400            72      70/ 11/ 12 1019.4R
SAND KEY         1350            74      70/ 10/ 12 1019.9R
LONG KEY         1300            75 76   50/  9/ 13 1019.0R
MOLASSES REEF    NOT AVBL
FOWEY ROCKS      1400            75 76   70/ 11/ 13 1020.6R
Buoy 42097       1400                                 N/A     2/ 7

$$




USA.gov is the U.S. government's official web portal to all federal, state and local government web resources and services.